| time (UTC) | temp F | wind direction | speed MPH | gust MPH | rain 1hr in | rain 24hr in | rain mn in | humidity % | barometer mb |
| 20260901004705 | 57 | 295 | 1.0 | 3.0 | 0.00 | 0.43 | 0.00 | 92 | 1019.3 |
| 20260901004205 | 57 | 222 | 1.0 | 2.0 | 0.00 | 0.43 | 0.00 | 92 | 1019.2 |
| 20260901003706 | 57 | 231 | 1.0 | 2.0 | 0.00 | 0.43 | 0.00 | 92 | 1019.1 |
| 20260901003205 | 57 | 314 | 1.0 | 3.0 | 0.01 | 0.43 | 0.00 | 92 | 1019.1 |
| 20260901002705 | 57 | 178 | 1.0 | 3.0 | 0.01 | 0.43 | 0.00 | 92 | 1019.1 |
| 20260901001705 | 57 | 231 | 0.0 | 1.0 | 0.01 | 0.43 | 0.00 | 92 | 1019.1 |
| 20260901001206 | 57 | 46 | 0.0 | 3.0 | 0.01 | 0.43 | 0.00 | 92 | 1019.0 |
| 20260901000705 | 57 | 222 | 1.0 | 3.0 | 0.01 | 0.43 | 0.43 | 92 | 1019.0 |
| 20260901000205 | 57 | 46 | 1.0 | 3.0 | 0.01 | 0.43 | 0.43 | 92 | 1019.0 |
| 20260831235705 | 57 | 269 | 1.0 | 3.0 | 0.01 | 0.43 | 0.43 | 92 | 1019.0 |
| 20260831235206 | 58 | 286 | 1.0 | 2.0 | 0.01 | 0.43 | 0.43 | 92 | 1018.9 |
| 20260831234706 | 58 | 28 | 1.0 | 2.0 | 0.01 | 0.43 | 0.43 | 92 | 1019.0 |
| 20260831234205 | 58 | 1 | 1.0 | 3.0 | 0.01 | 0.43 | 0.43 | 92 | 1019.0 |
| 20260831233705 | 58 | 321 | 1.0 | 3.0 | 0.01 | 0.43 | 0.43 | 92 | 1019.0 |
| 20260831233205 | 58 | 197 | 2.0 | 3.0 | 0.00 | 0.43 | 0.43 | 92 | 1018.9 |
| 20260831232705 | 58 | 295 | 1.0 | 3.0 | 0.00 | 0.43 | 0.43 | 92 | 1018.9 |
| 20260831232206 | 58 | 347 | 1.0 | 6.0 | 0.00 | 0.43 | 0.43 | 92 | 1018.9 |
| 20260831231206 | 58 | 314 | 2.0 | 5.0 | 0.00 | 0.43 | 0.43 | 92 | 1018.8 |
| 20260831230705 | 58 | 331 | 3.0 | 5.0 | 0.00 | 0.43 | 0.43 | 92 | 1018.7 |
| 20260831230206 | 58 | 324 | 3.0 | 4.0 | 0.00 | 0.43 | 0.43 | 92 | 1018.6 |
| 20260831225706 | 58 | 311 | 3.0 | 4.0 | 0.00 | 0.43 | 0.43 | 92 | 1018.6 |
| 20260831224705 | 58 | 317 | 2.0 | 5.0 | 0.00 | 0.43 | 0.43 | 92 | 1018.7 |
| 20260831223706 | 58 | 259 | 2.0 | 6.0 | 0.00 | 0.43 | 0.43 | 91 | 1018.7 |
| 20260831222705 | 59 | 222 | 3.0 | 6.0 | 0.00 | 0.43 | 0.43 | 91 | 1018.5 |
| 20260831222205 | 59 | 276 | 3.0 | 3.0 | 0.00 | 0.43 | 0.43 | 91 | 1018.5 |
| 20260831221205 | 59 | 257 | 2.0 | 3.0 | 0.00 | 0.43 | 0.43 | 91 | 1018.4 |
| 20260831220703 | 59 | 226 | 1.0 | 3.0 | 0.00 | 0.43 | 0.43 | 91 | 1018.5 |
| 20260831220205 | 59 | 257 | 1.0 | 4.0 | 0.00 | 0.43 | 0.43 | 91 | 1018.4 |
| 20260831215206 | 59 | 222 | 1.0 | 8.0 | 0.00 | 0.43 | 0.43 | 91 | 1018.4 |
| 20260831214705 | 59 | 1 | 2.0 | 8.0 | 0.00 | 0.43 | 0.43 | 91 | 1018.4 |
| 20260831214205 | 59 | 253 | 3.0 | 10.0 | 0.06 | 0.43 | 0.43 | 91 | 1018.4 |
| 20260831213706 | 59 | 260 | 5.0 | 10.0 | 0.06 | 0.43 | 0.43 | 91 | 1018.3 |
| 20260831213205 | 59 | 222 | 6.0 | 10.0 | 0.06 | 0.43 | 0.43 | 91 | 1018.3 |
| 20260831212706 | 59 | 231 | 6.0 | 10.0 | 0.06 | 0.43 | 0.43 | 91 | 1018.3 |
| 20260831211706 | 59 | 238 | 2.0 | 5.0 | 0.06 | 0.43 | 0.43 | 91 | 1018.3 |
| 20260831210705 | 59 | 160 | 1.0 | 3.0 | 0.06 | 0.43 | 0.43 | 91 | 1018.3 |
| 20260831210233 | 60 | 205 | 1.0 | 7.0 | 0.06 | 0.43 | 0.43 | 91 | 1018.2 |
| 20260831205705 | 60 | 269 | 1.0 | 7.0 | 0.06 | 0.43 | 0.43 | 91 | 1018.3 |
| 20260831205206 | 60 | 269 | 2.0 | 7.0 | 0.06 | 0.43 | 0.43 | 90 | 1018.3 |
| 20260831204705 | 60 | 201 | 3.0 | 7.0 | 0.06 | 0.43 | 0.43 | 90 | 1018.3 |
| 20260831204206 | 60 | 229 | 4.0 | 5.0 | 0.00 | 0.43 | 0.43 | 90 | 1018.3 |
| 20260831202705 | 60 | 233 | 3.0 | 7.0 | 0.09 | 0.37 | 0.37 | 90 | 1017.8 |
| 20260831202206 | 60 | 219 | 4.0 | 11.0 | 0.12 | 0.37 | 0.37 | 90 | 1017.7 |
| 20260831201705 | 60 | 227 | 5.0 | 13.0 | 0.12 | 0.37 | 0.37 | 90 | 1017.6 |
| 20260831201205 | 60 | 252 | 6.0 | 15.0 | 0.21 | 0.37 | 0.37 | 90 | 1017.5 |
| 20260831200705 | 60 | 203 | 7.0 | 15.0 | 0.21 | 0.37 | 0.37 | 90 | 1017.4 |
| 20260831200205 | 60 | 199 | 9.0 | 14.0 | 0.21 | 0.37 | 0.37 | 90 | 1017.2 |
| 20260831195207 | 60 | 224 | 7.0 | 14.0 | 0.21 | 0.37 | 0.37 | 89 | 1017.2 |
| 20260831194705 | 60 | 239 | 7.0 | 14.0 | 0.21 | 0.37 | 0.37 | 89 | 1017.2 |
| 20260831194205 | 60 | 253 | 8.0 | 20.0 | 0.22 | 0.37 | 0.37 | 89 | 1017.3 |
| 20260831193705 | 60 | 257 | 8.0 | 20.0 | 0.22 | 0.37 | 0.37 | 89 | 1017.3 |
| 20260831193206 | 61 | 252 | 9.0 | 20.0 | 0.12 | 0.37 | 0.37 | 89 | 1017.3 |
| 20260831192705 | 61 | 214 | 10.0 | 20.0 | 0.12 | 0.27 | 0.27 | 89 | 1017.5 |
| 20260831192206 | 61 | 252 | 10.0 | 14.0 | 0.09 | 0.27 | 0.27 | 88 | 1017.7 |
| 20260831191706 | 61 | 222 | 9.0 | 14.0 | 0.09 | 0.24 | 0.19 | 88 | 1017.5 |
| 20260831191205 | 61 | 222 | 8.0 | 9.0 | 0.01 | 0.16 | 0.16 | 88 | 1017.2 |
| 20260831190705 | 61 | 222 | 6.0 | 9.0 | 0.01 | 0.16 | 0.16 | 87 | 1016.6 |
| 20260831190205 | 61 | 236 | 6.0 | 9.0 | 0.01 | 0.16 | 0.16 | 87 | 1016.8 |
| 20260831185705 | 61 | 207 | 5.0 | 9.0 | 0.01 | 0.16 | 0.16 | 87 | 1016.6 |
| 20260831185206 | 61 | 212 | 5.0 | 7.0 | 0.01 | 0.16 | 0.16 | 86 | 1016.5 |
| 20260831184705 | 61 | 199 | 4.0 | 7.0 | 0.01 | 0.16 | 0.16 | 86 | 1016.3 |
| 20260831184206 | 61 | 202 | 5.0 | 6.0 | 0.01 | 0.16 | 0.16 | 86 | 1016.5 |
| 20260831183705 | 61 | 210 | 4.0 | 6.0 | 0.01 | 0.15 | 0.15 | 86 | 1016.5 |
| 20260831183205 | 62 | 212 | 3.0 | 7.0 | 0.01 | 0.15 | 0.15 | 86 | 1016.4 |
| 20260831182705 | 62 | 194 | 3.0 | 7.0 | 0.01 | 0.15 | 0.15 | 86 | 1016.4 |
| 20260831182206 | 62 | 199 | 4.0 | 8.0 | 0.01 | 0.15 | 0.15 | 86 | 1016.4 |
| 20260831181705 | 62 | 210 | 5.0 | 9.0 | 0.01 | 0.15 | 0.15 | 86 | 1016.4 |
| 20260831181205 | 62 | 239 | 5.0 | 11.0 | 0.01 | 0.15 | 0.15 | 85 | 1016.3 |
| 20260831180704 | 62 | 220 | 5.0 | 11.0 | 0.01 | 0.15 | 0.15 | 85 | 1016.2 |
| 20260831180205 | 62 | 240 | 6.0 | 14.0 | 0.01 | 0.15 | 0.15 | 84 | 1016.3 |
| 20260831175706 | 62 | 207 | 7.0 | 14.0 | 0.01 | 0.15 | 0.15 | 84 | 1016.2 |
| 20260831175206 | 62 | 212 | 8.0 | 15.0 | 0.01 | 0.15 | 0.15 | 84 | 1016.2 |
| 20260831174706 | 62 | 226 | 9.0 | 15.0 | 0.01 | 0.15 | 0.15 | 83 | 1016.1 |
| 20260831174205 | 63 | 239 | 9.0 | 12.0 | 0.00 | 0.15 | 0.15 | 82 | 1016.1 |
| 20260831172206 | 63 | 229 | 8.0 | 15.0 | 0.00 | 0.14 | 0.14 | 79 | 1016.0 |
| 20260831171707 | 63 | 259 | 9.0 | 15.0 | 0.00 | 0.14 | 0.14 | 78 | 1015.9 |
| 20260831171205 | 63 | 262 | 8.0 | 14.0 | 0.00 | 0.14 | 0.14 | 77 | 1015.7 |
| 20260831170706 | 63 | 265 | 7.0 | 14.0 | 0.00 | 0.14 | 0.14 | 77 | 1015.6 |
| 20260831170233 | 63 | 259 | 8.0 | 14.0 | 0.02 | 0.14 | 0.14 | 76 | 1015.5 |
| 20260831165704 | 63 | 231 | 8.0 | 14.0 | 0.02 | 0.14 | 0.14 | 76 | 1015.6 |
| 20260831165225 | 64 | 220 | 8.0 | 17.0 | 0.02 | 0.14 | 0.14 | 75 | 1015.3 |
| 20260831164705 | 64 | 238 | 9.0 | 17.0 | 0.02 | 0.14 | 0.14 | 74 | 1015.4 |
| 20260831164207 | 64 | 214 | 10.0 | 24.0 | 0.02 | 0.14 | 0.14 | 74 | 1015.4 |
| 20260831163705 | 64 | 233 | 11.0 | 24.0 | 0.02 | 0.14 | 0.14 | 74 | 1015.6 |
| 20260831162206 | 65 | 222 | 13.0 | 14.0 | 0.02 | 0.14 | 0.14 | 80 | 1015.7 |
| 20260831161205 | 64 | 229 | 8.0 | 14.0 | 0.02 | 0.14 | 0.14 | 81 | 1015.7 |
| 20260831160706 | 65 | 281 | 6.0 | 14.0 | 0.02 | 0.14 | 0.14 | 77 | 1015.7 |
| 20260831160205 | 67 | 226 | 4.0 | 7.0 | 0.00 | 0.14 | 0.14 | 74 | 1015.7 |
| 20260831155705 | 67 | 250 | 3.0 | 7.0 | 0.00 | 0.12 | 0.12 | 73 | 1015.7 |
| 20260831155206 | 67 | 269 | 2.0 | 6.0 | 0.00 | 0.12 | 0.12 | 71 | 1015.3 |
| 20260831154705 | 67 | 276 | 2.0 | 6.0 | 0.00 | 0.12 | 0.12 | 70 | 1015.1 |
| 20260831154205 | 67 | 243 | 2.0 | 8.0 | 0.00 | 0.12 | 0.12 | 70 | 1015.1 |
| 20260831153205 | 67 | 305 | 3.0 | 12.0 | 0.00 | 0.12 | 0.12 | 70 | 1015.0 |
| 20260831152706 | 67 | 314 | 3.0 | 12.0 | 0.00 | 0.12 | 0.12 | 70 | 1015.0 |
| 20260831152206 | 67 | 277 | 5.0 | 19.0 | 0.00 | 0.12 | 0.12 | 70 | 1015.1 |
| 20260831151705 | 67 | 296 | 6.0 | 19.0 | 0.00 | 0.12 | 0.12 | 67 | 1015.0 |
| 20260831150205 | 70 | 252 | 6.0 | 20.0 | 0.00 | 0.12 | 0.12 | 62 | 1014.9 |
| 20260831145706 | 71 | 283 | 9.0 | 20.0 | 0.00 | 0.12 | 0.12 | 55 | 1014.7 |
| 20260831145206 | 71 | 236 | 12.0 | 19.0 | 0.00 | 0.12 | 0.12 | 52 | 1014.6 |
| 20260831144705 | 71 | 224 | 12.0 | 19.0 | 0.00 | 0.12 | 0.12 | 51 | 1014.4 |
| 20260831144205 | 71 | 226 | 12.0 | 20.0 | 0.00 | 0.12 | 0.12 | 51 | 1014.3 |
| 20260831143705 | 72 | 219 | 12.0 | 20.0 | 0.00 | 0.12 | 0.12 | 51 | 1014.4 |
| 20260831143206 | 72 | 207 | 12.0 | 19.0 | 0.00 | 0.12 | 0.12 | 51 | 1014.5 |
| 20260831142705 | 72 | 217 | 11.0 | 19.0 | 0.00 | 0.12 | 0.12 | 51 | 1014.5 |
| 20260831142206 | 72 | 257 | 11.0 | 19.0 | 0.00 | 0.12 | 0.12 | 51 | 1014.5 |
| 20260831141706 | 72 | 227 | 10.0 | 21.0 | 0.00 | 0.12 | 0.12 | 51 | 1014.5 |
| 20260831141206 | 72 | 236 | 11.0 | 28.0 | 0.00 | 0.12 | 0.12 | 51 | 1014.6 |
| 20260831140704 | 72 | 257 | 14.0 | 28.0 | 0.00 | 0.12 | 0.12 | 50 | 1014.5 |
| 20260831135706 | 72 | 210 | 15.0 | 28.0 | 0.00 | 0.12 | 0.12 | 50 | 1014.6 |
| 20260831135205 | 73 | 231 | 15.0 | 25.0 | 0.00 | 0.12 | 0.12 | 51 | 1014.5 |
| 20260831134705 | 72 | 229 | 14.0 | 25.0 | 0.00 | 0.12 | 0.12 | 50 | 1014.6 |
| 20260831134205 | 72 | 227 | 13.0 | 25.0 | 0.00 | 0.12 | 0.12 | 52 | 1014.6 |
| 20260831133704 | 72 | 246 | 13.0 | 21.0 | 0.00 | 0.12 | 0.12 | 52 | 1014.6 |
| 20260831132705 | 73 | 231 | 9.0 | 19.0 | 0.00 | 0.12 | 0.12 | 55 | 1014.8 |
| 20260831131705 | 72 | 229 | 11.0 | 22.0 | 0.00 | 0.12 | 0.12 | 59 | 1014.8 |
| 20260831131206 | 71 | 236 | 10.0 | 19.0 | 0.00 | 0.12 | 0.12 | 60 | 1015.0 |
| 20260831130705 | 72 | 248 | 11.0 | 19.0 | 0.00 | 0.12 | 0.12 | 58 | 1015.0 |
| 20260831130205 | 72 | 245 | 11.0 | 23.0 | 0.00 | 0.12 | 0.12 | 59 | 1015.1 |
| 20260831125707 | 73 | 296 | 11.0 | 23.0 | 0.00 | 0.12 | 0.12 | 61 | 1015.1 |
| 20260831125205 | 72 | 258 | 13.0 | 26.0 | 0.00 | 0.12 | 0.12 | 60 | 1015.2 |
| 20260831124705 | 71 | 210 | 14.0 | 26.0 | 0.00 | 0.12 | 0.12 | 62 | 1015.2 |
| 20260831124205 | 70 | 207 | 13.0 | 23.0 | 0.01 | 0.12 | 0.12 | 64 | 1015.3 |
| 20260831123705 | 69 | 236 | 13.0 | 23.0 | 0.01 | 0.12 | 0.12 | 67 | 1015.3 |
| 20260831123205 | 67 | 210 | 12.0 | 17.0 | 0.01 | 0.12 | 0.12 | 70 | 1015.3 |
| 20260831122706 | 67 | 269 | 10.0 | 17.0 | 0.01 | 0.12 | 0.12 | 75 | 1015.6 |
| 20260831122205 | 66 | 252 | 9.0 | 15.0 | 0.01 | 0.12 | 0.12 | 78 | 1015.7 |
| 20260831121705 | 66 | 236 | 8.0 | 14.0 | 0.01 | 0.12 | 0.12 | 82 | 1015.7 |
| 20260831120705 | 66 | 248 | 8.0 | 14.0 | 0.01 | 0.12 | 0.12 | 81 | 1015.6 |
| 20260831120228 | 65 | 224 | 7.0 | 23.0 | 0.01 | 0.12 | 0.12 | 83 | 1015.6 |
| 20260831115705 | 65 | 248 | 7.0 | 23.0 | 0.01 | 0.12 | 0.12 | 84 | 1015.5 |
| 20260831115205 | 64 | 252 | 8.0 | 23.0 | 0.01 | 0.12 | 0.12 | 85 | 1015.5 |
| 20260831114205 | 66 | 265 | 11.0 | 30.0 | 0.00 | 0.12 | 0.11 | 74 | 1015.7 |
| 20260831113705 | 68 | 264 | 10.0 | 30.0 | 0.00 | 0.11 | 0.11 | 71 | 1015.3 |
| 20260831113206 | 69 | 302 | 13.0 | 31.0 | 0.00 | 0.11 | 0.11 | 67 | 1015.1 |
| 20260831112705 | 70 | 241 | 18.0 | 31.0 | 0.00 | 0.11 | 0.11 | 61 | 1015.0 |
| 20260831111734 | 71 | 224 | 16.0 | 23.0 | 0.00 | 0.11 | 0.11 | 58 | 1014.8 |
| 20260831111205 | 71 | 221 | 14.0 | 25.0 | 0.00 | 0.11 | 0.11 | 61 | 1014.8 |
| 20260831110205 | 71 | 233 | 16.0 | 25.0 | 0.00 | 0.11 | 0.11 | 60 | 1014.8 |
| 20260831105706 | 71 | 248 | 15.0 | 25.0 | 0.00 | 0.11 | 0.11 | 62 | 1015.0 |
| 20260831105206 | 70 | 231 | 14.0 | 21.0 | 0.00 | 0.11 | 0.11 | 61 | 1014.9 |
| 20260831104705 | 70 | 233 | 13.0 | 21.0 | 0.00 | 0.11 | 0.11 | 62 | 1014.9 |
| 20260831104206 | 70 | 252 | 14.0 | 25.0 | 0.00 | 0.11 | 0.11 | 64 | 1015.1 |
| 20260831103706 | 69 | 233 | 14.0 | 25.0 | 0.00 | 0.11 | 0.11 | 63 | 1015.1 |
| 20260831102705 | 69 | 219 | 17.0 | 27.0 | 0.00 | 0.11 | 0.11 | 64 | 1015.2 |
| 20260831102206 | 69 | 212 | 14.0 | 23.0 | 0.00 | 0.11 | 0.11 | 64 | 1015.2 |
| 20260831101205 | 68 | 255 | 14.0 | 21.0 | 0.00 | 0.11 | 0.11 | 66 | 1015.3 |
| 20260831100705 | 68 | 220 | 12.0 | 21.0 | 0.00 | 0.11 | 0.11 | 65 | 1015.3 |
| 20260831095706 | 68 | 233 | 13.0 | 23.0 | 0.00 | 0.11 | 0.11 | 65 | 1015.3 |
| 20260831095206 | 69 | 241 | 14.0 | 21.0 | 0.00 | 0.11 | 0.11 | 65 | 1015.4 |
| 20260831094705 | 68 | 248 | 13.0 | 21.0 | 0.00 | 0.11 | 0.11 | 66 | 1015.3 |
| 20260831094206 | 68 | 229 | 11.0 | 20.0 | 0.00 | 0.11 | 0.11 | 67 | 1015.3 |
| 20260831093705 | 68 | 212 | 10.0 | 20.0 | 0.00 | 0.11 | 0.11 | 67 | 1015.5 |
| 20260831093205 | 68 | 252 | 11.0 | 26.0 | 0.00 | 0.11 | 0.11 | 66 | 1015.4 |
| 20260831092205 | 69 | 238 | 13.0 | 26.0 | 0.00 | 0.11 | 0.11 | 65 | 1015.4 |
| 20260831091705 | 69 | 285 | 13.0 | 26.0 | 0.00 | 0.11 | 0.11 | 64 | 1015.5 |
| 20260831091205 | 69 | 207 | 13.0 | 22.0 | 0.00 | 0.11 | 0.11 | 65 | 1015.3 |
| 20260831090705 | 68 | 243 | 14.0 | 22.0 | 0.00 | 0.11 | 0.11 | 67 | 1015.3 |
| 20260831090206 | 67 | 269 | 14.0 | 20.0 | 0.00 | 0.11 | 0.11 | 67 | 1015.3 |
| 20260831085704 | 67 | 224 | 13.0 | 20.0 | 0.00 | 0.11 | 0.11 | 66 | 1015.4 |
| 20260831085205 | 67 | 224 | 12.0 | 26.0 | 0.00 | 0.11 | 0.11 | 67 | 1015.2 |
| 20260831084705 | 67 | 233 | 11.0 | 26.0 | 0.00 | 0.11 | 0.11 | 68 | 1015.3 |
| 20260831084205 | 67 | 226 | 12.0 | 26.0 | 0.00 | 0.11 | 0.11 | 70 | 1015.3 |
| 20260831083707 | 67 | 271 | 12.0 | 17.0 | 0.00 | 0.11 | 0.11 | 70 | 1015.2 |
| 20260831082705 | 66 | 222 | 9.0 | 15.0 | 0.00 | 0.11 | 0.11 | 74 | 1015.0 |
| 20260831082205 | 65 | 234 | 9.0 | 15.0 | 0.00 | 0.11 | 0.11 | 76 | 1015.0 |
| 20260831081705 | 65 | 243 | 8.0 | 15.0 | 0.00 | 0.11 | 0.11 | 77 | 1015.2 |
| 20260831081206 | 65 | 217 | 7.0 | 22.0 | 0.00 | 0.11 | 0.11 | 77 | 1015.1 |
| 20260831080206 | 65 | 224 | 10.0 | 22.0 | 0.00 | 0.11 | 0.11 | 77 | 1015.1 |
| 20260831075705 | 65 | 222 | 10.0 | 22.0 | 0.00 | 0.11 | 0.11 | 78 | 1014.9 |
| 20260831075205 | 65 | 224 | 10.0 | 13.0 | 0.00 | 0.11 | 0.11 | 79 | 1014.9 |
| 20260831074706 | 65 | 243 | 8.0 | 13.0 | 0.00 | 0.11 | 0.11 | 81 | 1014.9 |
| 20260831074205 | 64 | 260 | 8.0 | 15.0 | 0.00 | 0.11 | 0.11 | 82 | 1014.8 |
| 20260831073705 | 64 | 231 | 7.0 | 16.0 | 0.00 | 0.11 | 0.11 | 82 | 1014.8 |
| 20260831073205 | 64 | 229 | 8.0 | 16.0 | 0.00 | 0.11 | 0.11 | 83 | 1014.9 |
| 20260831072732 | 64 | 286 | 9.0 | 16.0 | 0.00 | 0.11 | 0.11 | 83 | 1014.9 |
| 20260831072207 | 64 | 236 | 9.0 | 16.0 | 0.00 | 0.11 | 0.11 | 84 | 1014.9 |
| 20260831071205 | 63 | 246 | 8.0 | 14.0 | 0.00 | 0.11 | 0.11 | 86 | 1014.9 |
| 20260831070706 | 63 | 265 | 9.0 | 14.0 | 0.00 | 0.11 | 0.11 | 86 | 1014.9 |
| 20260831070206 | 62 | 233 | 9.0 | 13.0 | 0.00 | 0.11 | 0.11 | 86 | 1014.9 |
| 20260831065205 | 62 | 226 | 8.0 | 14.0 | 0.00 | 0.11 | 0.11 | 88 | 1014.7 |
| 20260831064705 | 62 | 226 | 6.0 | 14.0 | 0.00 | 0.11 | 0.11 | 89 | 1014.8 |
| 20260831063708 | 61 | 215 | 6.0 | 14.0 | 0.00 | 0.11 | 0.11 | 90 | 1014.7 |
| 20260831062705 | 61 | 227 | 6.0 | 12.0 | 0.00 | 0.11 | 0.11 | 90 | 1014.6 |
| 20260831062206 | 61 | 207 | 7.0 | 13.0 | 0.00 | 0.11 | 0.11 | 90 | 1014.7 |
| 20260831061705 | 61 | 248 | 7.0 | 13.0 | 0.00 | 0.11 | 0.11 | 91 | 1014.5 |
| 20260831061205 | 61 | 231 | 8.0 | 13.0 | 0.00 | 0.11 | 0.11 | 91 | 1014.5 |
| 20260831060705 | 61 | 255 | 8.0 | 13.0 | 0.00 | 0.11 | 0.11 | 91 | 1014.4 |
| 20260831060205 | 61 | 245 | 8.0 | 13.0 | 0.00 | 0.11 | 0.11 | 92 | 1014.4 |
| 20260831055706 | 60 | 219 | 8.0 | 13.0 | 0.00 | 0.11 | 0.11 | 92 | 1014.4 |
| 20260831055206 | 60 | 252 | 8.0 | 13.0 | 0.00 | 0.11 | 0.11 | 92 | 1014.3 |
| 20260831054705 | 60 | 239 | 8.0 | 13.0 | 0.00 | 0.11 | 0.11 | 92 | 1014.4 |
| 20260831054205 | 60 | 236 | 8.0 | 15.0 | 0.00 | 0.11 | 0.11 | 92 | 1014.3 |
| 20260831053705 | 60 | 227 | 8.0 | 15.0 | 0.00 | 0.11 | 0.11 | 92 | 1014.3 |
| 20260831053232 | 60 | 219 | 8.0 | 14.0 | 0.00 | 0.11 | 0.11 | 92 | 1014.2 |
| 20260831052705 | 60 | 227 | 8.0 | 14.0 | 0.00 | 0.11 | 0.11 | 92 | 1013.9 |
| 20260831052205 | 60 | 236 | 8.0 | 15.0 | 0.00 | 0.11 | 0.11 | 92 | 1013.8 |
| 20260831051705 | 60 | 233 | 8.0 | 15.0 | 0.00 | 0.11 | 0.11 | 92 | 1013.8 |
| 20260831051205 | 60 | 276 | 8.0 | 11.0 | 0.00 | 0.11 | 0.11 | 92 | 1013.8 |
| 20260831050705 | 60 | 233 | 7.0 | 11.0 | 0.00 | 0.11 | 0.11 | 92 | 1013.7 |
| 20260831050205 | 60 | 224 | 5.0 | 7.0 | 0.00 | 0.11 | 0.11 | 92 | 1013.8 |
| 20260831045705 | 60 | 214 | 3.0 | 5.0 | 0.00 | 0.11 | 0.11 | 92 | 1013.7 |
| 20260831045205 | 60 | 195 | 3.0 | 5.0 | 0.00 | 0.11 | 0.11 | 92 | 1013.8 |
| 20260831044705 | 60 | 207 | 3.0 | 5.0 | 0.00 | 0.11 | 0.11 | 92 | 1013.8 |
| 20260831043705 | 60 | 205 | 3.0 | 8.0 | 0.00 | 0.11 | 0.11 | 92 | 1013.8 |
| 20260831043205 | 60 | 220 | 4.0 | 8.0 | 0.00 | 0.11 | 0.11 | 92 | 1013.8 |
| 20260831042706 | 60 | 248 | 5.0 | 8.0 | 0.00 | 0.11 | 0.11 | 92 | 1013.7 |
| 20260831042206 | 60 | 208 | 5.0 | 8.0 | 0.00 | 0.11 | 0.11 | 92 | 1013.7 |
| 20260831041705 | 60 | 226 | 5.0 | 9.0 | 0.00 | 0.11 | 0.11 | 91 | 1013.7 |
| 20260831040705 | 60 | 236 | 5.0 | 10.0 | 0.00 | 0.11 | 0.11 | 91 | 1013.5 |
| 20260831040206 | 60 | 255 | 6.0 | 10.0 | 0.00 | 0.11 | 0.11 | 91 | 1013.4 |
| 20260831035706 | 59 | 253 | 5.0 | 7.0 | 0.00 | 0.11 | 0.11 | 91 | 1013.4 |
| 20260831035205 | 59 | 210 | 3.0 | 7.0 | 0.00 | 0.11 | 0.11 | 91 | 1013.4 |
| 20260831034705 | 59 | 233 | 2.0 | 7.0 | 0.00 | 0.11 | 0.11 | 90 | 1013.4 |
| 20260831034206 | 59 | 307 | 2.0 | 4.0 | 0.00 | 0.11 | 0.11 | 90 | 1013.4 |
| 20260831033706 | 59 | 1 | 3.0 | 4.0 | 0.00 | 0.11 | 0.11 | 90 | 1013.3 |
| 20260831033205 | 59 | 236 | 2.0 | 5.0 | 0.00 | 0.11 | 0.11 | 90 | 1013.3 |
| 20260831032705 | 59 | 238 | 1.0 | 5.0 | 0.00 | 0.11 | 0.11 | 90 | 1013.4 |
| 20260831032206 | 59 | 240 | 1.0 | 5.0 | 0.00 | 0.11 | 0.11 | 90 | 1013.2 |
| 20260831031705 | 59 | 344 | 2.0 | 6.0 | 0.00 | 0.11 | 0.11 | 90 | 1013.1 |
| 20260831031234 | 59 | 178 | 2.0 | 6.0 | 0.00 | 0.11 | 0.11 | 90 | 1013.1 |
| 20260831030705 | 59 | 243 | 3.0 | 5.0 | 0.00 | 0.11 | 0.11 | 90 | 1013.2 |
| 20260831030229 | 59 | 39 | 3.0 | 5.0 | 0.00 | 0.11 | 0.11 | 90 | 1013.0 |
| 20260831025706 | 59 | 269 | 3.0 | 3.0 | 0.01 | 0.11 | 0.11 | 90 | 1013.2 |
| 20260831025205 | 59 | 338 | 2.0 | 3.0 | 0.01 | 0.11 | 0.11 | 89 | 1013.1 |
| 20260831024705 | 59 | 238 | 2.0 | 3.0 | 0.01 | 0.11 | 0.11 | 89 | 1012.8 |
| 20260831023705 | 59 | 253 | 1.0 | 3.0 | 0.01 | 0.11 | 0.11 | 89 | 1012.7 |
| 20260831023206 | 59 | 104 | 1.0 | 4.0 | 0.02 | 0.11 | 0.11 | 89 | 1012.7 |
| 20260831022705 | 59 | 40 | 1.0 | 4.0 | 0.02 | 0.11 | 0.11 | 89 | 1012.8 |
| 20260831021705 | 59 | 104 | 2.0 | 4.0 | 0.02 | 0.11 | 0.11 | 88 | 1012.7 |
| 20260831021205 | 59 | 106 | 2.0 | 8.0 | 0.09 | 0.11 | 0.11 | 88 | 1012.7 |
| 20260831020705 | 59 | 126 | 2.0 | 8.0 | 0.09 | 0.11 | 0.11 | 88 | 1012.8 |
| 20260831020224 | 59 | 178 | 2.0 | 8.0 | 0.11 | 0.11 | 0.11 | 88 | 1012.8 |
| 20260831015706 | 59 | 32 | 4.0 | 8.0 | 0.11 | 0.11 | 0.11 | 88 | 1012.7 |
| 20260831015206 | 59 | 89 | 4.0 | 6.0 | 0.10 | 0.11 | 0.11 | 88 | 1012.7 |
| 20260831014705 | 59 | 98 | 4.0 | 6.0 | 0.10 | 0.10 | 0.10 | 88 | 1012.8 |
| 20260831014205 | 59 | 39 | 4.0 | 6.0 | 0.10 | 0.10 | 0.10 | 87 | 1013.0 |
| 20260831013705 | 59 | 72 | 3.0 | 4.0 | 0.10 | 0.10 | 0.10 | 87 | 1013.0 |
| 20260831013205 | 59 | 96 | 2.0 | 10.0 | 0.09 | 0.10 | 0.10 | 87 | 1013.1 |
| 20260831012705 | 59 | 56 | 2.0 | 10.0 | 0.09 | 0.09 | 0.09 | 87 | 1013.1 |
| 20260831012205 | 59 | 11 | 4.0 | 10.0 | 0.08 | 0.09 | 0.09 | 87 | 1013.3 |
| 20260831011705 | 59 | 269 | 5.0 | 9.0 | 0.08 | 0.05 | 0.05 | 86 | 1013.7 |
| 20260831011205 | 60 | 227 | 3.0 | 7.0 | 0.01 | 0.02 | 0.02 | 86 | 1013.7 |
| 20260831010705 | 60 | 314 | 2.0 | 7.0 | 0.01 | 0.01 | 0.00 | 85 | 1013.0 |
| 20260831010206 | 60 | 302 | 3.0 | 4.0 | 0.00 | 0.01 | 0.00 | 84 | 1012.8 |